{"data":{"norad_id":64921,"intl_designator":"2025-157T","name":"STARLINK-34699","alt_names":[],"object_type":"PAYLOAD","status":"ACTIVE","operator":null,"country":"US","launch_date":"2025-07-26","launch_site_code":"AFETR","launch_vehicle":null,"mission":null,"orbit_class":"UNKNOWN","rcs_meters":null,"size_class":null,"mass_kg":null,"dimensions":null,"purposes":["comms"],"wikipedia_slug":null,"has_3d_model":false,"image_url":null,"decayed_at":null,"tle_current":{"epoch":"2026-05-25T04:00:03.998880Z","epoch_age_seconds":64662,"freshness":"FRESH","line1":"1 64921U 25157T   26145.16671295 -.00014337  00000+0 -42536-3 0  9999","line2":"2 64921  53.1600 350.5331 0001106  84.6416 196.3450 15.33553707  5851","mean_motion":15.33553707,"eccentricity":0.0001106,"inclination_deg":53.16,"raan_deg":350.5331,"arg_perigee_deg":84.6416,"mean_anomaly_deg":196.345,"bstar":-0.00042536,"rev_number":585,"period_min":93.899548051498,"perigee_km":464.46288277652,"apogee_km":465.97663329139,"semimajor_km":6843.356758034,"source":"CELESTRAK","updated_at":"2026-05-25T13:38:20.624213Z"}}}